Weather History for KLAS - July, 2013

Change the Weather History Date:

Friday, July 12, 2013

  Actual Average Record
Temperature  
Mean Temperature 88 °F 93 °F  
Max Temperature 94 °F 104 °F 114 °F (1958)
Min Temperature 81 °F 81 °F 62 °F (1937)
Degree Days  
Heating Degree Days 0 0  
Month to date heating degree days 0 0  
Since 1 June heating degree days 0 1  
Since 1 July heating degree days 0 0  
Cooling Degree Days 23 28  
Month to date cooling degree days 393 323  
Year to date cooling degree days 1887 1523  
Since 1 June cooling degree days 1197 973  
Growing Degree Days 37 (Base 50)    
Moisture  
Dew Point 60 °F    
Average Humidity 41    
Maximum Humidity 51    
Minimum Humidity 30    
Precipitation  
Precipitation T in 0.01 in 0.20 in (1954)
Month to date precipitation 0.05 0.10  
Year to date precipitation 0.66 2.18  
Snow  
Snow 0.00 in 0.00 in 0.00 in ()
Month to date snowfall 0.0 0.0  
Since 1 June snowfall 0.0 0.0  
Since 1 July snowfall 0.0 0.0  
Snow Depth 0.00 in    
Sea Level Pressure  
Sea Level Pressure 29.80 in    
Wind  
Wind Speed 6 mph (SSE)    
Max Wind Speed 16 mph    
Max Gust Speed 21 mph    
Visibility 10 miles    
Events      
T = Trace of Precipitation, MM = Missing Value Source: NWS Daily Summary

Daily Weather History Graph

Daily Weather History Graph

Search for Another Location

Airport or City:

Trip Planner

Search our weather history database for the weather conditions in past years. The results will help you decide how hot, cold, wet, or windy it might be!

Date:

Astronomy

Jul. 12, 2013 Rise Set
Actual Time 5:33 AM PDT 7:58 PM PDT
Civil Twilight 5:03 AM PDT 8:28 PM PDT
Nautical Twilight 4:27 AM PDT 9:04 PM PDT
Astronomical Twilight 3:46 AM PDT 9:45 PM PDT
Moon 9:45 AM PDT (7/12) 10:21 PM PDT (7/12)
Length of Visible Light 15h 24m
Length of Day
14h 25m
Waxing Crescent, 18% of the Moon is Illuminated
Jul 12
Waxing Crescent
Jul 15
First Quarter
Jul 22
Full
Jul 29
Last Quarter
Aug 6
New

Hourly Weather History & Observations

Time (PDT) Temp. Heat Index Dew Point Humidity Pressure Visibility Wind Dir Wind Speed Gust Speed Precip Events Conditions
12:56 AM 82.0 °F 82.4 °F 60.1 °F 47% 29.80 in 10.0 mi Calm Calm - N/A   Overcast
1:56 AM 82.0 °F 82.1 °F 59.0 °F 45% 29.80 in 10.0 mi SSW 4.6 mph - N/A   Overcast
2:56 AM 82.0 °F 82.4 °F 60.1 °F 47% 29.79 in 10.0 mi SSW 5.8 mph - N/A   Overcast
3:56 AM 82.0 °F 82.4 °F 60.1 °F 47% 29.79 in 10.0 mi SSW 4.6 mph - N/A   Mostly Cloudy
4:56 AM 82.0 °F 82.4 °F 60.1 °F 47% 29.80 in 10.0 mi South 4.6 mph - N/A   Overcast
5:56 AM 81.0 °F 81.7 °F 61.0 °F 50% 29.81 in 10.0 mi Calm Calm - N/A   Mostly Cloudy
6:56 AM 81.0 °F 81.7 °F 61.0 °F 50% 29.83 in 10.0 mi South 4.6 mph - N/A   Mostly Cloudy
7:56 AM 82.0 °F 82.7 °F 61.0 °F 49% 29.85 in 10.0 mi SSW 5.8 mph - N/A   Mostly Cloudy
8:56 AM 84.0 °F 84.4 °F 61.0 °F 46% 29.85 in 10.0 mi Variable 3.5 mph - N/A   Mostly Cloudy
9:56 AM 84.9 °F 85.4 °F 62.1 °F 46% 29.85 in 10.0 mi SE 5.8 mph - N/A   Mostly Cloudy
10:56 AM 87.1 °F 87.0 °F 61.0 °F 41% 29.84 in 10.0 mi Variable 4.6 mph - N/A   Mostly Cloudy
11:56 AM 87.1 °F 86.7 °F 60.1 °F 40% 29.83 in 10.0 mi SE 3.5 mph - N/A   Mostly Cloudy
12:17 PM 87.8 °F 87.6 °F 60.8 °F 40% 29.91 in 10.0 mi Calm Calm - N/A   Mostly Cloudy
12:56 PM 89.1 °F 88.8 °F 60.1 °F 38% 29.82 in 10.0 mi South 15.0 mph 19.6 mph N/A   Mostly Cloudy
1:56 PM 91.9 °F 91.8 °F 61.0 °F 35% 29.81 in 10.0 mi SSE 10.4 mph - N/A   Mostly Cloudy
2:56 PM 91.0 °F 90.0 °F 57.9 °F 33% 29.79 in 10.0 mi SSE 10.4 mph 17.3 mph N/A   Mostly Cloudy
3:56 PM 93.9 °F 92.9 °F 57.9 °F 30% 29.76 in 10.0 mi ENE 10.4 mph - N/A   Mostly Cloudy
4:56 PM 91.9 °F 90.8 °F 57.9 °F 32% 29.75 in 10.0 mi SSE 8.1 mph - N/A   Mostly Cloudy
5:56 PM 91.0 °F 90.0 °F 57.9 °F 33% 29.73 in 10.0 mi SE 8.1 mph - N/A   Mostly Cloudy
6:56 PM 91.0 °F 89.7 °F 57.0 °F 32% 29.73 in 10.0 mi South 5.8 mph - N/A   Mostly Cloudy
7:56 PM 90.0 °F 88.6 °F 57.0 °F 33% 29.74 in 10.0 mi SSE 5.8 mph - N/A   Mostly Cloudy
8:56 PM 89.1 °F 88.0 °F 57.9 °F 35% 29.75 in 10.0 mi East 8.1 mph - N/A   Scattered Clouds
9:56 PM 87.1 °F 86.5 °F 59.0 °F 39% 29.76 in 10.0 mi SE 4.6 mph - N/A   Partly Cloudy
10:56 PM 86.0 °F 85.4 °F 59.0 °F 40% 29.78 in 10.0 mi SSE 5.8 mph - N/A   Partly Cloudy
11:56 PM 84.9 °F 84.4 °F 59.0 °F 41% 29.78 in 10.0 mi SSW 3.5 mph - N/A   Partly Cloudy